Location: Central Falls
(41.8900°N, 71.3929°W)
Time: 06:53:40
(UTC+00:00)

Altair - Pass Details

Date: 10 December 2023
Orbit: 1501 x 1682 km, 47.2° (Epoch: 29 February)

Event Time Altitude Azimuth Distance (km) Brightness Sun altitude
Rises 12:57:18 0° 256° (WSW) 4,853 9.8 7.5°
Reaches altitude 10° 13:00:30 10° 258° (WSW) 3,845 9.3 8.0°
Maximum altitude 13:10:16 73° 343° (NNW) 1,634 7.7 9.3°
Drops below altitude 10° 13:19:41 10° 69° (ENE) 3,708 9.9 10.6°
Sets 13:22:43 0° 71° (ENE) 4,674 10.4 11.0°
